Regional Weather Roundup
Issued by NWS Portland, ME

Home | Current Version | Previous Version | Text Only | Print | Product List | Glossary On
Versions: 1 2 3 4 5 6 7 8 9 10 11 12 13 14 15 16 17 18 19 20 21 22 23 24 25 26 27 28 29 30 31 32 33 34 35 36 37 38 39 40 41 42 43 44 45 46 47 48 49 50
000
ASUS41 KGYX 251610
RWRGYX
WEATHER ROUNDUP FOR MAINE AND NEW HAMPSHIRE
NATIONAL WEATHER SERVICE GRAY ME
1100 AM EST SUN JAN 25 2015

MEZ002-005-006-010-012-015-018-020-021-024-026-027-029-251700-
MAINE

CITY           SKY/WX    TMP DP  RH WIND       PRES   REMARKS
PORTLAND       PTSUNNY   33  17  51 NW16G26   29.52R
SANFORD        MOSUNNY   30  10  43 W17G30    29.55R WCI  18
BAR HARBOR     PTSUNNY   34  28  80 W16G25    29.42R
WISCASSET      PTSUNNY   32  18  56 NW12G22   29.52R
ROCKLAND       PTSUNNY   32  19  59 NW16G23   29.46R
FRYEBURG       SUNNY     28   7  41 W14G24    29.54R WCI  17
LEWISTONAUBURN FAIR      28   7  40 NW14G24   29.52R WCI  17
AUGUSTA        SUNNY     26   6  42 W16G24    29.50R WCI  14
WATERVILLE     SUNNY     27   7  43 NW14G21   29.47R WCI  15
BANGOR         MOSUNNY   28   7  41 W17G29    29.45R WCI  16
GREENVILLE       N/A     16   2  54 NW12G24   29.36R WCI   3
MILLINOCKET    SUNNY     23   5  46 W14G30    29.40R WCI  11
HOULTON        MOSUNNY   23   7  50 W17G24    29.29R WCI   9
PRESQUE ISLE   SUNNY     21   3  45 W21G26    29.27S WCI   6
FRENCHVILLE    CLOUDY    11   1  64 W14G26    29.23R WCI  -5
CARIBOU        MIX PCPN  19   2  47 W17G29    29.24R WCI   4
$$

NHZ002-005-008-009-011-012-014-251700-
NEW HAMPSHIRE

CITY           SKY/WX    TMP DP  RH WIND       PRES   REMARKS
PORTSMOUTH     PTSUNNY   33  20  61 NW14G24   29.55R
ROCHESTER      MOSUNNY   30  16  56 NW17G28   29.56R WCI  18
NASHUA           N/A     35  23  62 W12       29.60R
MANCHESTER     PTSUNNY   33  17  51 NW20G31   29.58R
CONCORD        CLOUDY    29  15  56 NW21G32   29.60R WCI  16
LACONIA        SUNNY     27   7  43 W13G18    29.57R WCI  16
PLYMOUTH       FAIR      24  11  57 W13G23    29.61R WCI  12
BERLIN         MOSUNNY   15   3  59 W14G26    29.53R WCI   0
WHITEFIELD     SUNNY     16   4  59 W16G25    29.58R WCI   1
JAFFREY        PTSUNNY   29  16  58 NW7G26    29.58R
KEENE          MOSUNNY   30  12  47 NW16G24   29.63R WCI  19
LEBANON        MOSUNNY   25   7  46 NW15      29.63R WCI  13
MT WASHINGTON  BLWGSNOW  -6  -6 100 NW61G84     N/A  VSB 1/16WCI -42
$$

VTZ005-007-008-251700-
VERMONT

CITY           SKY/WX    TMP DP  RH WIND       PRES   REMARKS
ST JOHNSBURY     N/A     14   2  58 MISG      29.64R
MONTPELIER     CLOUDY    12   4  70 NW17G25   29.68R HAZE    WCI  -5
BURLINGTON     MOSUNNY   15   1  53 NW15G22   29.77R WCI   0
$$

MAZ007-012-024-CTZ003-RIZ002-NYZ038-NYZ072-251700-
SOUTHERN NEW ENGLAND AND NY

CITY           SKY/WX    TMP DP  RH WIND       PRES   REMARKS
BOSTON         MOSUNNY   38  24  57 W17G28    29.59R
WORCESTER      PTSUNNY   31  17  56 W15G24    29.60R
NANTUCKET      SUNNY     42  31  64 W23G33    29.62S
PROVIDENCE     PTSUNNY   37  25  61 W13G26    29.64R
HARTFORD       MOSUNNY   35  19  52 NW21G28   29.69R
ALBANY         MOSUNNY   28   9  44 NW16G25   29.77R WCI  16
NEW YORK CITY  PTSUNNY   41  27  57 NW14      29.74S
$$

ANZ081-ANZ082-ANZ150-NHZ014-MEZ023>029-251700-
COASTAL MARINE OBSERVATIONS

STATION/POSITION TIME  TEMP    WIND        PRES    WAVE
                       AIR SEA DIR/SP/G            HT/PER
                 (UTC) (F)     (DEG/KT/KT) (MB)    (FT/S)
MOUNT DESERT ROC 1600   38                  994.4S
MATINICUS ROCK   1600          290/ 32/ 35  996.7R
PORTLAND WX BUOY 1550   36 40  310/ 16/ 19  999.0R   5/14
WELLS            1500   33 32  260/  8/ 11  998.6R
ISLE OF SHOALS   1600   34     310/ 26/ 29  999.9R
JEFFREYS LEDGE   1521      44                N/A     8/ 6
CASHES LEDGE BUO 1550   40 45  270/ 27/ 31  997.2R  10/14
$$

.............KEY..............
   WCI - WIND CHILL
   TC  - TEMPERATURE IN CELSIUS
   VSB - VISIBILITY IN MILES
   HX  - HEAT INDEX
   FAIR- INDICATES FEW OR NO CLOUDS BELOW 12,000 FT, WITH NO
         SIGNIFICANT WEATHER AND/OR OBSTRUCTIONS TO VISIBILITY.





USA.gov is the U.S. government's official web portal to all federal, state and local government web resources and services.